Location: Baumgarten
(49.0970°N, 12.7493°E)
Time: 18:09:35
(UTC+00:00)

Cosmos 44 - Pass Details

Date: 05 July 2020
Orbit: 586 x 776 km, 65.1° (Epoch: 13 August)

Event Time Altitude Azimuth Distance (km) Brightness Sun altitude
Exits shadow 23:43:41 16° 248° (WSW) 1,563 4.8 -17.9°
Maximum altitude 23:46:51 44° 316° (NW) 834 4.0 -17.9°
Drops below altitude 10° 23:51:09 10° 30° (NNE) 1,995 6.7 -17.8°
Sets 23:53:35 0° 37° (NE) 2,933 7.7 -17.7°
